This is the latest recevied weather packets stored in our database for station/object K9JWM. If no packets are shown the sender has not sent any weather packets the latest 10 day(s).
| Time | Temp. | Humidity | Pressure | Rain* | Wind** | Luminosity | Snow |
|---|---|---|---|---|---|---|---|
| 1778077030 | 1.67° C | 67% | 1014.8 hPa | 0 mm | - | - | - |
| 1778076130 | 1.67° C | 66% | 1014.9 hPa | 0 mm | - | - | - |
| 1778075230 | 1.11° C | 69% | 1014.8 hPa | 0 mm | - | - | - |
| 1778074331 | 1.11° C | 70% | 1014.8 hPa | 0 mm | - | - | - |
| 1778073431 | 1.11° C | 70% | 1014.7 hPa | 0 mm | - | - | - |
| 1778072529 | 0.56° C | 69% | 1014.6 hPa | 0 mm | - | - | - |
| 1778071630 | 0.56° C | 70% | 1014.7 hPa | 0 mm | - | - | - |
| 1778070731 | 0.56° C | 69% | 1014.5 hPa | 0 mm | - | - | - |
| 1778069831 | 0.56° C | 68% | 1014.3 hPa | 0 mm | - | - | - |
| 1778068929 | 0.56° C | 66% | 1014.1 hPa | 0 mm | - | - | - |
| 1778068030 | 0.56° C | 66% | 1013.9 hPa | 0 mm | - | - | - |
| 1778067131 | 0.56° C | 65% | 1013.6 hPa | 0 mm | - | - | - |
| 1778066229 | 0.56° C | 64% | 1013.5 hPa | 0 mm | - | - | - |
| 1778065331 | 1.11° C | 64% | 1013.4 hPa | 0 mm | - | - | - |
| 1778064431 | 1.11° C | 68% | 1013.2 hPa | 0 mm | - | - | - |
| 1778063530 | 1.11° C | 69% | 1013.2 hPa | 0 mm | - | - | - |
| 1778062630 | 1.67° C | 67% | 1013.2 hPa | 0 mm | - | - | - |
| 1778061730 | 1.67° C | 67% | 1013.1 hPa | 0 mm | - | - | - |
| 1778060831 | 1.67° C | 65% | 1013.2 hPa | 0 mm | - | - | - |
| 1778059931 | 1.67° C | 66% | 1013.1 hPa | 0 mm | - | - | - |
| 1778059031 | 1.67° C | 67% | 1013 hPa | 0 mm | - | - | - |
| 1778058129 | 1.67° C | 67% | 1012.8 hPa | 0 mm | - | - | - |
| 1778057230 | 1.67° C | 64% | 1012.8 hPa | 0 mm | - | - | - |
| 1778056331 | 1.67° C | 67% | 1012.8 hPa | 0 mm | - | - | - |
| 1778055431 | 1.67° C | 64% | 1012.8 hPa | 0 mm | - | - | - |
* Rain latest hour (hover to see other rain measurements)
** Current wind speed in m/s (hover to see current wind gust speed)